Showing default

CORVUS BC2, 42846

Orbit data source: Space-Track

CORVUS BC2, 42846 is a payload satellite owned by Astro Digital (US) in SSO that was launched on Fri, 14 Jul 2017 UTC via a SOYUZ-2-1A launch vehicle from the Tyuratam Missile And Space Complex (TTMTR). Payload-class satellites include a variety of spacecraft equipped with specific instruments for various scientific and technological missions. These include communications satellites like Starlink; space stations such as the ISS; scientific satellites like the Hubble; Earth observation satellites from companies like Planet Labs, Umbra, and HawkEye 360; GPS; miniature CubeSats for education and research; and military/defense satellites.

Loading next visibility...
Identifier
42846, 2017-042X
Orbit
SSO
Country
Flag of USUS
Related business
Manufacturer
Astro Digital
Mission
Operational Commercial Imaging
Bus & Motor
CUBESAT 6U, Unknown motor
Mass
10 kg wet, 10 kg dry
Launch date (UTC)
2017-07-14 (9 years ago)
Launch vehicle
SOYUZ-2-1A
Launch site
Tyuratam Missile And Space Complex (TTMTR)
Object type
Payload
Rocket body
Debris
Shape & HBR
Box + 2 Pan, 0.2 m
Radar Cross Section
0.092 m², Small (<0.1 m²)

Expand to show TLE details & history
Last TLE update: 11 hours ago

TLE from 11 hours ago
0 CORVUS BC2
1 42846U 17042X   26034.42987998  .00004301  00000-0  30463-3 0  9996
2 42846  97.3882 201.1860 0012785 205.0545 155.0064 15.05255267466932
Epoch: 2026-02-03T10:19Z
TLE epoch observation values (Epoch: 2026-02-03T10:19:01.630Z)
Latitude
0.00007°
Longitude
-87.18173°
Altitude
561.826 km
Speed
7.576 km/s
True Right ascension
13h 24m 44s
True Declination
0° 00' 00"
Sunlit
Object was in full shadow at epoch
Visualization orbit readout
Latitude
Unknown
Longitude
Unknown
Altitude
Unknown
Speed
Unknown
Apparent Right ascension
Unknown
Apparent Declination
Unknown
Sunlit
N/A
Visualization observer readout
Local Sidereal Time
22:51:14
Azimuth
Unknown
Elevation
Unknown
Doppler factor
Unknown
Orbital elements
Apogee altitude
556.562 km
Perigee altitude
538.852 km
Semi-major axis
6,925.844 km
Eccentricity
0.00128
Inclination
97.3882°
RAAN
201.186°
Arg. of periapsis
205.0545°
True anomaly
155.06821°
Mean anomaly
155.0064°
Eccentric anomaly
155.03731°
Mean motion
3.7656 °/min
Orbital period
95.6 mins
BSTAR
0.00030463
Loading maneuver chart data...
Computing Atmospheric mass density...
Loading historical data...
Loading historical data...
Loading historical data...
Loading historical data...
Loading historical data...
Loading historical data...
Loading historical data...

Documentation

Showing up to 5 results
|